SCP
0 0 0 0 0 0 0 0 0 0 0 0 0 0 0 0 0 0 0 0 0 0 0 0 0 0 0 0 0 0 0 0 0 0 0 0 0 0 0 0 0 0 0 0 0 0 0 0 0 0 0 0 0 0
0 0 0 0 0 0 0 0 0 0 0 0 0 0 0 0 0 0 0 0 0 0 0 0 0 0 0 0 0 0 0 0 0 0 0 0 0 0 0 0 0 0 0 0 0 0 0 -0 0 0 0 0 0 0
0 0 0 0 0 0 0 0 0 0 0 0 0 0 0 0 0 0 0 0 0 0 0 0 0 0 0 0 0 0 0 0 0 0 0 0 0 0 0 0 0 0 0 0 0 0 0 0 0 0 0 0 0 0
0 0 0 0 0 0 0 0 0 0 0 0 0 0 0 0 0 0 0 0 0 0 0 0 0 0 0 0 0 0 0 0 0 0 0 0 0 0 0 0 0 0 0 0 0 0 0 0 0 0 0 0 0 0
0 0 0 0 0 0 0 0 0 0 0 0 0 0 0 0 0 0 0 0 0 0 0 0 0 0 0 0 0 0 0 0 0 0 0 0 0 0 0 0 -0 -0 0 0 0 0 0 0 0 0 0 0 0 0
0 0 0 0 0 0 0 0 0 0 0 0 0 0 0 0 0 0 0 0 0 0 0 0 0 0 0 0 0 0 0 0 0 0 0 0 0 0 0 0 0 0 0 0 0 -0 -0 0 0 0 0 0 0 0
0 0 0 0 0 0 0 0 0 0 0 0 0 0 0 0 0 0 0 0 0 0 0 0 0 0 0 0 0 0 0 0 0 0 0 0 0 0 0 0 0 0 0 0 0 0 0 0 0 0 0 0 0 0
0 0 0 0 0 0 0 0 0 0 0 0 0 0 0 0 0 0 0 0 0 0 0 0 0 0 0 0 0 0 0 0 0 0 0 0 0 0 -0 0 0 0 0 0 0 0 0 0 0 0 0 0 0 0
0 0 0 0 0 0 0 0 0 0 0 0 0 0 0 0 0 0 0 0 0 0 0 0 0 0 0 0 0 0 0 -0 0 0 0 0 0 0 0 0 0 0 0 0 0 0 0 0 0 0 0 0 0 0
0 0 0 0 0 0 0 0 0 0 0 0 0 0 0 0 0 0 0 0 0 0 0 0 0 0 0 -0 0 -0 -0 -0 -0 0 0 0 0 0 0 0 0 0 0 0 0 0 0 0 0 0 0 0 0 0
0 0 0 0 0 0 0 0 0 0 0 0 0 0 0 0 0 0 0 0 0 0 0 0 0 0 0 0 0 -0 0 -0 -0 -0 -0 0 0 0 0 0 0 0 0 0 0 0 0 0 0 0 0 0 0 0
0 0 0 0 0 0 0 0 0 0 0 0 0 0 0 0 0 0 0 0 0 0 0 0 0 0 0 0 -0 -0 -0 -0 0 -0 -0 0 0 0 0 0 0 0 0 0 0 0 0 0 0 0 0 0 0 0
0 0 0 0 0 0 0 0 0 0 0 0 0 0 0 0 0 0 0 0 0 0 0 0 0 0 0 0 0 -0 0 0 -0 -0 0 -0 -0 0 0 0 0 0 0 0 0 0 0 0 0 0 0 0 0 0
0 0 0 0 0 0 0 0 0 0 0 0 0 0 0 0 0 0 0 0 0 0 0 0 0 0 0 0 0 -0 -0 -0 -0 0 0 -0 -0 -0 -0 0 0 0 0 0 0 0 0 0 0 0 0 0 0 0
0 0 0 0 0 0 0 0 0 0 0 0 0 0 0 0 0 0 0 0 -0 0 0 0 0 0 0 0 -0 -0 0 0 -0 0 0 -0 0 -0 -0 -0 -0 -0 0 0 -0 0 0 0 0 0 0 0 0 0
0 0 0 0 0 0 0 0 0 0 0 0 0 0 0 0 -0 0 0 0 -0 -0 -0 0 0 0 0 0 0 0 0 0 0 0 -0 -0 -0 -0 0 -0 -0 -0 0 -0 -0 -0 0 0 0 0 0 0 0 0
0 0 0 0 0 0 0 0 0 0 0 0 0 0 0 -0 -0 0 0 0 0 -0 0 0 0 0 0 0 0 0 0 0 -0 0 0 -0 -0 -0 -0 -0 -0 -0 0 -0 -0 -0 0 0 0 0 0 0 0 0
0 0 0 0 0 0 0 0 0 0 0 0 0 0 0 0 0 -0 -0 0 -0 -0 0 0 0 0 0 0 0 0 0 0 0 0 0 0 0 -0 -0 -0 0 0 0 0 0 0 0 0 0 0 0 -0 0 0
0 0 0 0 0 0 0 0 0 0 -0 0 0 0 0 0 0 0 0 0 0 0 -0 0 -0 0 0 0 0 0 0 0 0 0 0 0 0 0 0 0 0 -0 0 0 0 0 0 0 0 0 0 0 0 0
0 0 0 0 0 0 0 0 0 0 0 0 0 0 0 0 0 0 0 0 0 0 0 0 0 -0 -0 0 0 0 0 0 0 0 0 0 0 0 0 0 0 -0 -0 0 0 0 0 0 0 0 0 0 0 0
0 0 0 0 0 0 0 0 0 0 0 0 0 0 0 0 0 0 0 0 0 0 0 0 -0 0 -0 -0 0 0 0 0 0 0 0 0 0 0 0 0 0 -0 -0 -0 -0 -0 -0 0 0 0 0 0 0 0
0 0 0 0 0 0 0 0 -0 -0 0 0 0 0 0 0 0 0 0 0 0 0 0 0 0 0 0 0 0 0 0 -0 0 -0 -0 0 0 -0 -0 -0 -0 -0 -0 0 0 0 0 0 -0 -0 -0 0 0 0
0 0 0 0 0 0 0 0 0 0 0 0 0 0 0 0 0 -0 0 0 0 0 0 0 0 0 0 0 0 0 0 0 -0 -0 -0 0 -0 -0 -0 -0 0 0 0 0 0 0 0 0 0 0 0 0 0 0
0 0 0 0 0 0 0 0 0 0 0 0 0 0 -0 -0 0 0 0 0 0 0 0 0 0 0 0 0 0 0 0 0 0 0 0 0 0 -0 -0 0 0 0 0 0 0 0 0 0 0 -0 0 0 0 0
0 0 0 0 0 0 0 0 0 0 -0 -0 -0 -0 -0 0 -0 0 0 0 0 0 0 0 0 0 0 0 0 0 -0 0 0 0 0 -0 0 0 0 0 0 0 0 0 0 0 0 -0 -0 -0 0 0 0 0
0 -0 0 -0 0 -0 -0 0 0 0 0 0 0 0 0 -0 0 0 0 0 0 0 -0 0 0 0 0 0 0 0 0 0 -0 -0 0 -0 -0 0 0 0 0 0 0 0 -0 -0 -0 -0 0 0 -0 -0 0 0
0 -0 -0 -0 -0 0 0 0 0 0 0 0 0 0 0 0 0 0 0 -0 0 0 -0 0 0 0 0 0 0 0 0 0 -0 0 0 0 0 -0 0 0 0 -0 -0 0 0 -0 -0 0 0 -0 -0 0 0 0
-0 0 -0 0 -0 -0 0 0 0 0 0 0 0 0 0 0 -0 0 0 0 0 0 0 0 0 0 0 0 0 0 0 0 0 0 0 0 0 0 0 0 0 -0 0 0 0 -0 -0 -0 -0 0 -0 -0 0 0
0 0 0 -0 0 0 -0 0 0 0 0 0 0 0 0 0 0 0 0 -0 -0 -0 -0 0 0 0 0 0 0 0 0 -0 -0 0 -0 0 0 0 0 0 0 0 -0 -0 -0 -0 -0 -0 -0 -0 -0 0 0 0
0 0 0 0 0 0 0 0 0 0 -0 -0 -0 -0 -0 -0 0 -0 -0 0 0 0 0 0 0 0 0 0 0 0 0 0 0 0 0 0 -0 0 -0 -0 -0 -0 0 0 0 0 -0 0 0 0 0 0 0 0
0 0 0 0 0 0 0 0 0 0 0 -0 -0 0 -0 0 -0 -0 0 0 0 0 0 0 0 0 0 0 0 0 0 0 0 0 -0 -0 -0 -0 0 0 0 0 0 0 0 0 0 0 0 0 0 0 0 0
0 0 0 0 0 0 0 -0 -0 0 0 -0 -0 -0 0 0 -0 0 0 0 0 0 0 0 0 0 0 0 0 0 0 0 -0 0 -0 -0 -0 -0 -0 -0 -0 -0 0 0 0 0 0 0 0 0 0 0 0 0
0 0 0 0 0 0 0 0 0 0 0 0 -0 0 0 0 0 0 0 0 0 0 0 0 0 0 0 0 0 -0 -0 -0 0 0 -0 -0 0 0 -0 -0 -0 -0 -0 -0 -0 -0 -0 -0 -0 -0 -0 -0 -0 -0
Wind_Speed_500mb
25 25 27 29 29 24 23 25 28 31 32 24 22 24 27 31 36 34 21 11 8 13 35 52 45 41 28 18 6 11 18 4 8 2 5 7 6 6 3 11 10 10 12 9 8 8 19 13 6 12 10 11 15 32
27 26 27 28 29 25 22 23 26 30 32 28 23 24 27 31 32 35 31 16 17 27 29 44 57 46 48 47 32 11 14 13 10 5 2 5 3 2 4 7 10 5 7 5 11 14 7 22 4 13 19 17 23 27
29 28 29 28 28 24 23 24 26 30 32 30 28 27 26 27 29 33 33 28 28 25 41 23 14 35 29 36 27 29 24 22 13 10 8 4 8 3 5 4 4 8 7 3 8 3 4 31 12 24 26 26 26 26
32 29 28 28 27 25 24 25 27 30 32 32 31 29 26 26 26 34 40 36 26 15 11 13 16 54 45 32 44 53 52 26 16 28 4 5 6 6 3 1 3 6 19 7 6 9 4 3 39 34 28 21 13 21
32 30 28 27 28 26 26 26 28 31 33 34 34 30 28 28 30 34 39 10 11 9 9 30 61 6 22 17 24 39 46 45 28 6 7 7 7 3 5 4 7 10 8 5 6 8 2 9 40 29 40 40 21 7
30 30 28 28 28 27 27 27 29 32 34 36 35 33 29 28 31 34 6 2 7 7 17 9 20 20 19 25 22 39 55 52 28 13 12 11 13 12 6 6 15 34 37 38 10 13 17 30 18 30 45 42 23 13
28 30 28 26 26 27 27 28 31 32 34 36 38 35 30 27 28 23 13 17 23 29 10 12 15 14 29 19 8 13 37 31 22 13 12 11 10 13 4 15 12 25 34 35 33 29 30 16 22 41 40 41 27 16
26 20 17 20 23 25 28 29 31 33 34 36 38 34 30 26 29 16 4 20 16 18 7 6 8 16 19 11 7 1 13 28 19 16 8 6 8 11 9 21 48 61 60 59 61 52 59 59 56 48 36 37 29 17
29 28 22 21 24 30 31 31 32 32 33 36 31 28 20 3 4 10 31 28 18 12 6 6 4 7 22 12 11 6 6 4 3 5 7 11 6 11 14 22 48 60 64 70 68 67 71 72 63 50 35 29 28 20
29 30 28 27 28 30 31 31 31 31 32 29 23 7 5 2 18 37 6 3 2 6 9 7 6 6 14 8 8 10 6 5 5 8 10 7 9 55 61 64 69 66 58 51 58 60 57 53 44 38 34 28 25 23
27 29 25 27 29 30 28 30 29 29 26 14 7 5 12 23 17 5 4 6 6 6 9 11 19 8 11 5 6 6 5 5 4 5 6 5 7 7 19 29 33 39 56 69 67 51 48 47 36 27 26 25 21 20
28 25 26 26 28 26 26 25 26 23 19 15 18 19 9 4 6 6 4 4 6 5 8 9 14 16 10 11 7 6 5 3 8 10 4 6 7 36 38 43 37 30 20 42 57 68 52 42 37 30 26 24 19 13
26 23 23 25 26 26 23 21 21 21 19 10 3 6 4 3 3 6 5 5 4 8 14 13 6 7 8 12 10 4 7 8 10 4 6 6 18 49 52 45 41 36 31 31 46 53 50 34 30 26 27 28 23 16
20 21 24 26 23 19 18 17 15 12 8 4 3 8 8 7 8 7 4 7 14 19 29 27 13 7 7 6 5 6 6 4 6 5 6 3 40 59 48 43 41 44 24 29 40 46 38 32 29 20 21 22 23 23
20 22 24 18 18 16 15 13 10 5 4 6 6 8 10 14 15 20 21 15 18 31 21 11 8 10 3 6 5 5 6 7 6 4 6 23 44 36 41 38 41 29 8 28 39 39 37 31 22 19 18 18 24 24
20 21 19 18 15 12 11 9 9 5 4 8 12 9 13 9 14 13 20 18 26 42 23 10 3 4 4 3 4 5 6 6 7 6 35 27 29 43 35 38 34 14 21 34 38 36 31 22 13 12 15 11 6 6
23 20 17 12 11 11 9 9 6 7 9 9 13 24 35 36 32 31 22 32 32 25 4 6 6 6 5 4 4 4 8 8 28 24 19 33 36 27 30 42 37 12 13 25 26 21 15 13 15 13 12 33 23 18
19 18 16 13 11 8 10 10 7 9 12 19 13 22 21 30 31 37 38 33 23 12 14 4 10 3 5 8 8 6 22 42 29 25 31 18 21 22 34 38 32 40 41 36 25 14 13 22 28 26 19 15 15 15
18 18 20 18 14 8 6 8 11 9 17 17 26 39 37 39 40 37 35 28 26 23 16 11 6 5 5 8 11 17 23 21 24 33 20 25 28 22 29 27 27 29 18 25 29 31 28 21 15 13 12 18 19 15
20 15 19 19 16 5 5 6 9 11 10 9 21 27 24 23 33 33 28 24 24 10 9 6 7 5 10 37 45 43 24 22 13 23 29 29 34 38 37 32 34 34 29 35 32 29 27 23 12 8 12 13 6 5
22 24 20 20 11 12 9 7 11 12 13 14 23 26 18 22 24 26 22 18 18 11 9 15 19 24 38 37 28 14 8 12 22 26 33 34 31 34 35 32 28 28 30 29 24 21 21 24 27 27 26 26 27 24
20 23 12 16 7 7 12 14 12 12 11 16 19 11 14 9 9 4 3 11 11 20 29 29 33 33 29 14 14 13 12 16 21 23 24 21 22 23 27 25 20 21 20 19 18 19 14 12 10 8 9 12 12 10
20 22 8 11 9 9 9 10 9 8 5 7 8 7 7 5 6 12 6 10 12 14 20 22 18 15 15 13 10 13 16 17 20 19 18 14 14 13 10 12 10 13 13 16 17 15 12 10 9 8 9 13 17 19
14 13 6 8 15 7 7 8 10 8 7 6 4 7 5 6 11 4 5 6 2 4 2 4 7 8 10 10 9 10 15 19 21 21 13 11 9 6 3 9 9 7 6 5 8 13 17 20 22 24 24 25 26 27
6 8 5 9 7 7 6 6 7 5 6 7 5 7 5 7 4 3 4 7 7 8 10 10 10 15 17 19 17 14 16 19 20 13 4 10 12 8 7 11 12 7 1 8 14 16 18 21 23 24 23 20 18 18
4 13 13 9 6 8 7 5 4 4 5 6 4 2 7 4 4 5 4 7 11 13 13 15 19 21 19 17 18 18 15 15 15 13 8 15 9 13 19 16 7 2 7 10 12 15 17 17 18 17 12 13 13 14
5 8 13 14 10 8 9 11 13 6 6 5 3 1 2 4 4 8 11 19 25 20 19 20 18 20 23 22 21 19 14 12 11 3 7 11 13 12 13 2 2 6 10 11 12 13 14 10 7 12 11 6 3 1
10 8 9 3 11 17 7 5 5 5 4 1 7 3 4 9 8 6 29 42 33 23 25 22 21 17 20 25 17 15 11 11 9 10 12 15 16 15 11 7 5 9 12 14 17 15 13 11 1 3 9 8 7 6
11 10 9 12 11 11 14 12 8 8 3 1 4 5 7 15 46 50 45 32 23 22 18 13 8 16 20 17 13 13 16 10 20 23 21 18 15 10 8 8 6 9 13 17 21 21 18 15 16 14 13 14 17 17
11 18 9 7 7 8 11 17 16 24 30 34 25 30 45 45 43 23 18 15 8 3 5 9 12 12 6 4 10 12 12 16 14 18 17 15 10 6 10 9 3 6 10 12 16 23 27 28 24 22 21 23 23 24
6 9 10 11 10 23 35 35 38 40 40 35 33 30 32 25 14 20 15 16 14 22 23 9 5 4 6 7 9 10 12 16 17 26 20 20 23 17 11 7 10 10 9 10 13 16 18 25 31 33 33 33 33 32
13 20 11 6 9 14 16 13 11 10 11 12 16 22 27 12 3 12 16 20 13 10 18 21 16 17 19 29 35 40 47 45 39 35 31 29 32 38 46 45 40 32 26 26 26 25 25 26 29 32 38 44 44 45
17 17 15 11 7 8 6 9 5 6 7 6 6 5 7 6 6 5 6 13 14 18 23 23 28 31 36 36 38 45 46 46 45 44 50 51 53 51 50 49 47 48 50 51 52 51 51 49 49 46 44 43 41 37
Wind_Direction_500mb
305 312 318 326 326 323 326 331 335 338 346 339 339 340 341 342 341 343 331 305 289 255 273 276 273 266 265 239 242 329 341 272 315 292 200 212 178 213 255 286 301 179 169 178 117 151 230 10 48 166 265 252 199 169
295 305 312 317 321 315 317 322 327 332 335 342 331 331 331 338 341 343 353 341 290 267 264 282 278 262 262 254 263 237 265 313 275 278 320 316 238 284 141 266 352 300 192 218 199 194 129 314 245 12 356 294 272 207
291 298 305 309 313 306 308 316 321 325 328 324 323 320 323 330 336 336 335 330 324 292 300 281 285 298 280 253 255 239 248 226 244 359 320 270 255 153 207 194 310 310 341 284 22 313 18 55 44 18 8 328 279 250
286 292 297 305 303 300 304 308 314 319 323 323 318 315 314 318 324 327 325 321 300 287 281 289 308 293 298 273 257 247 252 222 256 305 286 291 277 172 250 34 178 246 324 305 290 286 156 150 12 5 5 9 306 239
284 287 289 299 301 303 301 303 308 312 319 325 320 312 307 308 313 322 320 343 331 272 283 291 305 24 322 281 264 232 221 228 255 261 220 228 271 303 248 149 229 190 261 324 270 295 40 296 352 14 1 357 355 205
278 283 284 291 296 301 299 301 305 309 318 322 322 319 308 301 311 330 305 221 271 295 326 313 310 309 338 321 279 233 225 235 222 208 225 237 226 199 204 241 252 231 245 260 263 305 309 321 334 4 350 344 341 246
277 282 280 288 292 298 302 301 302 307 314 317 319 318 308 293 298 302 281 291 291 296 294 291 298 296 333 338 330 200 209 206 200 214 236 242 252 208 210 238 274 261 250 255 268 279 289 288 314 314 329 334 327 286
268 292 290 296 300 305 306 302 302 308 314 315 317 313 300 291 289 291 298 333 307 263 247 277 282 309 349 320 331 82 184 197 218 223 208 225 224 198 255 225 234 241 249 257 261 262 270 286 296 301 306 322 313 298
265 271 284 294 298 306 308 305 307 311 316 317 316 310 304 338 310 302 310 306 277 231 268 247 290 290 335 323 299 290 190 159 245 233 227 186 212 222 232 219 235 241 242 253 261 260 262 270 275 286 286 304 304 292
263 267 273 283 290 293 302 303 308 315 320 319 314 300 325 280 304 310 304 287 211 211 234 255 247 270 310 315 296 326 235 213 221 226 165 205 250 251 258 262 267 265 259 258 251 259 262 259 259 271 270 287 295 288
258 266 271 287 290 295 295 302 309 318 327 325 303 276 279 302 302 250 262 227 194 239 223 247 239 242 264 217 266 265 293 273 268 262 175 256 269 255 324 300 296 297 260 247 246 251 255 258 254 267 267 272 282 274
260 264 276 277 282 291 293 301 309 317 315 303 294 300 315 279 256 250 231 213 212 242 240 231 245 228 246 229 248 259 258 246 255 148 233 248 257 331 330 333 324 326 298 242 231 235 244 252 244 268 241 240 246 261
249 262 267 276 283 286 287 294 305 314 315 298 276 278 247 234 266 232 227 210 239 213 232 220 250 239 228 236 257 250 243 234 320 228 242 227 315 331 334 329 319 314 299 248 230 222 229 240 243 212 211 233 246 251
242 261 266 271 276 277 280 290 297 308 306 280 259 280 214 201 238 227 241 265 288 262 278 258 219 223 244 227 226 252 235 278 242 257 255 295 340 324 325 329 326 323 300 214 201 200 217 204 215 237 242 238 249 268
255 255 264 271 273 274 271 271 272 256 262 268 243 242 229 248 275 287 314 309 323 329 295 272 219 198 210 291 305 331 295 256 264 285 266 313 317 316 330 342 341 339 200 183 183 189 195 210 238 252 245 244 263 270
241 259 267 254 259 257 247 245 227 225 243 243 240 272 261 286 292 304 318 320 347 337 321 262 269 200 208 115 350 287 289 259 268 308 308 327 333 345 344 347 349 350 182 188 198 198 210 223 266 283 276 291 223 194
239 242 254 234 217 205 210 209 212 230 240 235 241 247 260 277 272 283 288 306 333 333 318 319 291 44 131 242 246 224 289 291 304 322 334 341 335 335 0 20 20 51 137 179 193 180 189 237 257 275 281 146 190 162
233 246 226 207 200 203 218 213 248 246 248 248 248 267 261 258 267 280 284 293 312 317 315 281 303 301 323 6 328 288 326 334 349 349 21 350 11 26 10 12 55 72 89 94 109 158 176 169 154 157 158 158 144 148
239 233 212 203 193 193 234 226 228 259 251 267 268 275 274 275 278 276 278 276 275 288 287 286 275 233 249 216 251 321 328 328 335 334 359 7 27 13 37 62 83 94 85 97 105 105 115 128 139 154 174 176 177 182
227 208 201 192 186 190 267 248 227 263 268 277 270 270 271 266 284 284 280 268 258 248 221 223 231 262 304 325 328 324 320 325 334 345 0 19 25 37 54 69 73 83 96 85 89 88 95 99 107 98 74 72 85 200
212 195 195 181 196 218 270 246 244 245 273 264 281 287 276 277 276 275 277 259 215 210 227 236 267 302 319 324 329 335 346 344 348 353 3 359 15 30 46 57 75 79 84 85 93 104 103 98 99 99 103 108 115 120
196 187 161 184 189 238 257 237 245 281 265 269 289 251 273 285 280 280 250 191 218 231 238 250 268 287 302 324 352 355 350 331 328 328 336 348 360 17 37 41 53 61 75 83 92 95 98 122 114 128 143 154 162 171
160 169 189 181 220 237 257 240 246 243 242 261 280 271 249 271 274 311 249 229 235 232 237 247 257 256 288 289 305 328 327 328 327 330 339 338 351 2 15 38 80 75 80 93 81 71 56 28 5 338 308 278 257 241
166 171 228 215 203 263 262 243 231 255 260 263 249 271 264 265 312 264 262 268 264 13 46 253 284 294 283 282 292 295 301 315 323 331 319 323 331 348 9 152 144 115 106 62 13 345 330 317 307 294 281 271 269 268
172 214 212 240 230 243 239 258 229 223 254 239 249 266 313 338 297 265 265 302 347 348 320 305 305 305 303 296 295 299 304 304 313 324 321 295 289 272 196 181 159 149 62 333 321 313 310 309 305 292 277 269 268 271
232 205 189 216 223 197 231 271 0 319 292 264 229 356 314 294 268 270 266 323 321 329 326 298 303 305 294 291 296 287 283 288 284 286 325 330 275 201 184 179 165 360 345 330 327 325 322 327 347 345 270 248 263 287
250 245 226 232 247 293 275 269 258 245 264 283 336 51 51 309 305 282 306 335 328 321 311 315 297 293 297 296 281 274 270 260 240 296 31 70 115 145 176 203 83 60 8 3 1 352 349 351 21 23 34 60 82 1
237 261 209 235 215 227 248 261 264 250 199 269 283 265 241 207 224 277 319 316 312 306 301 294 287 284 299 306 262 242 232 208 193 160 132 116 115 121 130 122 96 46 31 25 15 19 30 28 19 357 37 53 48 33
231 231 232 262 253 230 220 214 241 255 234 187 299 285 275 297 301 312 318 310 298 300 304 291 263 303 293 298 258 207 184 186 169 162 159 159 150 149 140 133 91 57 64 50 49 48 48 55 71 79 79 77 81 81
244 212 218 240 218 234 235 220 249 277 295 304 301 288 298 313 325 327 349 333 311 60 359 323 305 313 304 261 184 190 193 180 182 195 199 172 161 145 151 126 90 93 90 69 64 63 66 69 80 89 90 84 79 82
242 195 221 236 251 253 261 276 283 282 283 283 289 288 300 322 335 342 307 260 295 315 317 9 127 89 116 89 145 167 160 163 141 121 126 124 112 105 98 81 75 88 87 88 82 73 70 86 89 90 85 82 78 78
210 208 209 231 260 292 307 279 271 257 264 264 268 285 300 297 349 288 324 1 61 83 60 62 72 105 98 104 100 99 105 109 115 117 114 103 97 94 92 88 88 86 86 82 82 86 92 95 91 87 88 88 85 81
214 225 233 269 284 338 315 330 282 283 261 260 272 289 264 272 258 323 12 47 88 77 70 87 92 87 97 103 111 114 107 111 111 112 112 108 103 99 94 88 84 83 86 87 89 90 91 93 94 92 87 85 82 82
Wind_Speed_850mb
25 25 27 29 29 24 23 25 28 31 32 24 22 24 27 31 36 34 21 11 8 13 35 52 45 41 28 18 6 11 18 4 8 2 5 7 6 6 3 11 10 10 12 9 8 8 19 13 6 12 10 11 15 32
27 26 27 28 29 25 22 23 26 30 32 28 23 24 27 31 32 35 31 16 17 27 29 44 57 46 48 47 32 11 14 13 10 5 2 5 3 2 4 7 10 5 7 5 11 14 7 22 4 13 19 17 23 27
29 28 29 28 28 24 23 24 26 30 32 30 28 27 26 27 29 33 33 28 28 25 41 23 14 35 29 36 27 29 24 22 13 10 8 4 8 3 5 4 4 8 7 3 8 3 4 31 12 24 26 26 26 26
32 29 28 28 27 25 24 25 27 30 32 32 31 29 26 26 26 34 40 36 26 15 11 13 16 54 45 32 44 53 52 26 16 28 4 5 6 6 3 1 3 6 19 7 6 9 4 3 39 34 28 21 13 21
32 30 28 27 28 26 26 26 28 31 33 34 34 30 28 28 30 34 39 10 11 9 9 30 61 6 22 17 24 39 46 45 28 6 7 7 7 3 5 4 7 10 8 5 6 8 2 9 40 29 40 40 21 7
30 30 28 28 28 27 27 27 29 32 34 36 35 33 29 28 31 34 6 2 7 7 17 9 20 20 19 25 22 39 55 52 28 13 12 11 13 12 6 6 15 34 37 38 10 13 17 30 18 30 45 42 23 13
28 30 28 26 26 27 27 28 31 32 34 36 38 35 30 27 28 23 13 17 23 29 10 12 15 14 29 19 8 13 37 31 22 13 12 11 10 13 4 15 12 25 34 35 33 29 30 16 22 41 40 41 27 16
26 20 17 20 23 25 28 29 31 33 34 36 38 34 30 26 29 16 4 20 16 18 7 6 8 16 19 11 7 1 13 28 19 16 8 6 8 11 9 21 48 61 60 59 61 52 59 59 56 48 36 37 29 17
29 28 22 21 24 30 31 31 32 32 33 36 31 28 20 3 4 10 31 28 18 12 6 6 4 7 22 12 11 6 6 4 3 5 7 11 6 11 14 22 48 60 64 70 68 67 71 72 63 50 35 29 28 20
29 30 28 27 28 30 31 31 31 31 32 29 23 7 5 2 18 37 6 3 2 6 9 7 6 6 14 8 8 10 6 5 5 8 10 7 9 55 61 64 69 66 58 51 58 60 57 53 44 38 34 28 25 23
27 29 25 27 29 30 28 30 29 29 26 14 7 5 12 23 17 5 4 6 6 6 9 11 19 8 11 5 6 6 5 5 4 5 6 5 7 7 19 29 33 39 56 69 67 51 48 47 36 27 26 25 21 20
28 25 26 26 28 26 26 25 26 23 19 15 18 19 9 4 6 6 4 4 6 5 8 9 14 16 10 11 7 6 5 3 8 10 4 6 7 36 38 43 37 30 20 42 57 68 52 42 37 30 26 24 19 13
26 23 23 25 26 26 23 21 21 21 19 10 3 6 4 3 3 6 5 5 4 8 14 13 6 7 8 12 10 4 7 8 10 4 6 6 18 49 52 45 41 36 31 31 46 53 50 34 30 26 27 28 23 16
20 21 24 26 23 19 18 17 15 12 8 4 3 8 8 7 8 7 4 7 14 19 29 27 13 7 7 6 5 6 6 4 6 5 6 3 40 59 48 43 41 44 24 29 40 46 38 32 29 20 21 22 23 23
20 22 24 18 18 16 15 13 10 5 4 6 6 8 10 14 15 20 21 15 18 31 21 11 8 10 3 6 5 5 6 7 6 4 6 23 44 36 41 38 41 29 8 28 39 39 37 31 22 19 18 18 24 24
20 21 19 18 15 12 11 9 9 5 4 8 12 9 13 9 14 13 20 18 26 42 23 10 3 4 4 3 4 5 6 6 7 6 35 27 29 43 35 38 34 14 21 34 38 36 31 22 13 12 15 11 6 6
23 20 17 12 11 11 9 9 6 7 9 9 13 24 35 36 32 31 22 32 32 25 4 6 6 6 5 4 4 4 8 8 28 24 19 33 36 27 30 42 37 12 13 25 26 21 15 13 15 13 12 33 23 18
19 18 16 13 11 8 10 10 7 9 12 19 13 22 21 30 31 37 38 33 23 12 14 4 10 3 5 8 8 6 22 42 29 25 31 18 21 22 34 38 32 40 41 36 25 14 13 22 28 26 19 15 15 15
18 18 20 18 14 8 6 8 11 9 17 17 26 39 37 39 40 37 35 28 26 23 16 11 6 5 5 8 11 17 23 21 24 33 20 25 28 22 29 27 27 29 18 25 29 31 28 21 15 13 12 18 19 15
20 15 19 19 16 5 5 6 9 11 10 9 21 27 24 23 33 33 28 24 24 10 9 6 7 5 10 37 45 43 24 22 13 23 29 29 34 38 37 32 34 34 29 35 32 29 27 23 12 8 12 13 6 5
22 24 20 20 11 12 9 7 11 12 13 14 23 26 18 22 24 26 22 18 18 11 9 15 19 24 38 37 28 14 8 12 22 26 33 34 31 34 35 32 28 28 30 29 24 21 21 24 27 27 26 26 27 24
20 23 12 16 7 7 12 14 12 12 11 16 19 11 14 9 9 4 3 11 11 20 29 29 33 33 29 14 14 13 12 16 21 23 24 21 22 23 27 25 20 21 20 19 18 19 14 12 10 8 9 12 12 10
20 22 8 11 9 9 9 10 9 8 5 7 8 7 7 5 6 12 6 10 12 14 20 22 18 15 15 13 10 13 16 17 20 19 18 14 14 13 10 12 10 13 13 16 17 15 12 10 9 8 9 13 17 19
14 13 6 8 15 7 7 8 10 8 7 6 4 7 5 6 11 4 5 6 2 4 2 4 7 8 10 10 9 10 15 19 21 21 13 11 9 6 3 9 9 7 6 5 8 13 17 20 22 24 24 25 26 27
6 8 5 9 7 7 6 6 7 5 6 7 5 7 5 7 4 3 4 7 7 8 10 10 10 15 17 19 17 14 16 19 20 13 4 10 12 8 7 11 12 7 1 8 14 16 18 21 23 24 23 20 18 18
4 13 13 9 6 8 7 5 4 4 5 6 4 2 7 4 4 5 4 7 11 13 13 15 19 21 19 17 18 18 15 15 15 13 8 15 9 13 19 16 7 2 7 10 12 15 17 17 18 17 12 13 13 14
5 8 13 14 10 8 9 11 13 6 6 5 3 1 2 4 4 8 11 19 25 20 19 20 18 20 23 22 21 19 14 12 11 3 7 11 13 12 13 2 2 6 10 11 12 13 14 10 7 12 11 6 3 1
10 8 9 3 11 17 7 5 5 5 4 1 7 3 4 9 8 6 29 42 33 23 25 22 21 17 20 25 17 15 11 11 9 10 12 15 16 15 11 7 5 9 12 14 17 15 13 11 1 3 9 8 7 6
11 10 9 12 11 11 14 12 8 8 3 1 4 5 7 15 46 50 45 32 23 22 18 13 8 16 20 17 13 13 16 10 20 23 21 18 15 10 8 8 6 9 13 17 21 21 18 15 16 14 13 14 17 17
11 18 9 7 7 8 11 17 16 24 30 34 25 30 45 45 43 23 18 15 8 3 5 9 12 12 6 4 10 12 12 16 14 18 17 15 10 6 10 9 3 6 10 12 16 23 27 28 24 22 21 23 23 24
6 9 10 11 10 23 35 35 38 40 40 35 33 30 32 25 14 20 15 16 14 22 23 9 5 4 6 7 9 10 12 16 17 26 20 20 23 17 11 7 10 10 9 10 13 16 18 25 31 33 33 33 33 32
13 20 11 6 9 14 16 13 11 10 11 12 16 22 27 12 3 12 16 20 13 10 18 21 16 17 19 29 35 40 47 45 39 35 31 29 32 38 46 45 40 32 26 26 26 25 25 26 29 32 38 44 44 45
17 17 15 11 7 8 6 9 5 6 7 6 6 5 7 6 6 5 6 13 14 18 23 23 28 31 36 36 38 45 46 46 45 44 50 51 53 51 50 49 47 48 50 51 52 51 51 49 49 46 44 43 41 37
Wind_Direction_850mb
305 312 318 326 326 323 326 331 335 338 346 339 339 340 341 342 341 343 331 305 289 255 273 276 273 266 265 239 242 329 341 272 315 292 200 212 178 213 255 286 301 179 169 178 117 151 230 10 48 166 265 252 199 169
295 305 312 317 321 315 317 322 327 332 335 342 331 331 331 338 341 343 353 341 290 267 264 282 278 262 262 254 263 237 265 313 275 278 320 316 238 284 141 266 352 300 192 218 199 194 129 314 245 12 356 294 272 207
291 298 305 309 313 306 308 316 321 325 328 324 323 320 323 330 336 336 335 330 324 292 300 281 285 298 280 253 255 239 248 226 244 359 320 270 255 153 207 194 310 310 341 284 22 313 18 55 44 18 8 328 279 250
286 292 297 305 303 300 304 308 314 319 323 323 318 315 314 318 324 327 325 321 300 287 281 289 308 293 298 273 257 247 252 222 256 305 286 291 277 172 250 34 178 246 324 305 290 286 156 150 12 5 5 9 306 239
284 287 289 299 301 303 301 303 308 312 319 325 320 312 307 308 313 322 320 343 331 272 283 291 305 24 322 281 264 232 221 228 255 261 220 228 271 303 248 149 229 190 261 324 270 295 40 296 352 14 1 357 355 205
278 283 284 291 296 301 299 301 305 309 318 322 322 319 308 301 311 330 305 221 271 295 326 313 310 309 338 321 279 233 225 235 222 208 225 237 226 199 204 241 252 231 245 260 263 305 309 321 334 4 350 344 341 246
277 282 280 288 292 298 302 301 302 307 314 317 319 318 308 293 298 302 281 291 291 296 294 291 298 296 333 338 330 200 209 206 200 214 236 242 252 208 210 238 274 261 250 255 268 279 289 288 314 314 329 334 327 286
268 292 290 296 300 305 306 302 302 308 314 315 317 313 300 291 289 291 298 333 307 263 247 277 282 309 349 320 331 82 184 197 218 223 208 225 224 198 255 225 234 241 249 257 261 262 270 286 296 301 306 322 313 298
265 271 284 294 298 306 308 305 307 311 316 317 316 310 304 338 310 302 310 306 277 231 268 247 290 290 335 323 299 290 190 159 245 233 227 186 212 222 232 219 235 241 242 253 261 260 262 270 275 286 286 304 304 292
263 267 273 283 290 293 302 303 308 315 320 319 314 300 325 280 304 310 304 287 211 211 234 255 247 270 310 315 296 326 235 213 221 226 165 205 250 251 258 262 267 265 259 258 251 259 262 259 259 271 270 287 295 288
258 266 271 287 290 295 295 302 309 318 327 325 303 276 279 302 302 250 262 227 194 239 223 247 239 242 264 217 266 265 293 273 268 262 175 256 269 255 324 300 296 297 260 247 246 251 255 258 254 267 267 272 282 274
260 264 276 277 282 291 293 301 309 317 315 303 294 300 315 279 256 250 231 213 212 242 240 231 245 228 246 229 248 259 258 246 255 148 233 248 257 331 330 333 324 326 298 242 231 235 244 252 244 268 241 240 246 261
249 262 267 276 283 286 287 294 305 314 315 298 276 278 247 234 266 232 227 210 239 213 232 220 250 239 228 236 257 250 243 234 320 228 242 227 315 331 334 329 319 314 299 248 230 222 229 240 243 212 211 233 246 251
242 261 266 271 276 277 280 290 297 308 306 280 259 280 214 201 238 227 241 265 288 262 278 258 219 223 244 227 226 252 235 278 242 257 255 295 340 324 325 329 326 323 300 214 201 200 217 204 215 237 242 238 249 268
255 255 264 271 273 274 271 271 272 256 262 268 243 242 229 248 275 287 314 309 323 329 295 272 219 198 210 291 305 331 295 256 264 285 266 313 317 316 330 342 341 339 200 183 183 189 195 210 238 252 245 244 263 270
241 259 267 254 259 257 247 245 227 225 243 243 240 272 261 286 292 304 318 320 347 337 321 262 269 200 208 115 350 287 289 259 268 308 308 327 333 345 344 347 349 350 182 188 198 198 210 223 266 283 276 291 223 194
239 242 254 234 217 205 210 209 212 230 240 235 241 247 260 277 272 283 288 306 333 333 318 319 291 44 131 242 246 224 289 291 304 322 334 341 335 335 0 20 20 51 137 179 193 180 189 237 257 275 281 146 190 162
233 246 226 207 200 203 218 213 248 246 248 248 248 267 261 258 267 280 284 293 312 317 315 281 303 301 323 6 328 288 326 334 349 349 21 350 11 26 10 12 55 72 89 94 109 158 176 169 154 157 158 158 144 148
239 233 212 203 193 193 234 226 228 259 251 267 268 275 274 275 278 276 278 276 275 288 287 286 275 233 249 216 251 321 328 328 335 334 359 7 27 13 37 62 83 94 85 97 105 105 115 128 139 154 174 176 177 182
227 208 201 192 186 190 267 248 227 263 268 277 270 270 271 266 284 284 280 268 258 248 221 223 231 262 304 325 328 324 320 325 334 345 0 19 25 37 54 69 73 83 96 85 89 88 95 99 107 98 74 72 85 200
212 195 195 181 196 218 270 246 244 245 273 264 281 287 276 277 276 275 277 259 215 210 227 236 267 302 319 324 329 335 346 344 348 353 3 359 15 30 46 57 75 79 84 85 93 104 103 98 99 99 103 108 115 120
196 187 161 184 189 238 257 237 245 281 265 269 289 251 273 285 280 280 250 191 218 231 238 250 268 287 302 324 352 355 350 331 328 328 336 348 360 17 37 41 53 61 75 83 92 95 98 122 114 128 143 154 162 171
160 169 189 181 220 237 257 240 246 243 242 261 280 271 249 271 274 311 249 229 235 232 237 247 257 256 288 289 305 328 327 328 327 330 339 338 351 2 15 38 80 75 80 93 81 71 56 28 5 338 308 278 257 241
166 171 228 215 203 263 262 243 231 255 260 263 249 271 264 265 312 264 262 268 264 13 46 253 284 294 283 282 292 295 301 315 323 331 319 323 331 348 9 152 144 115 106 62 13 345 330 317 307 294 281 271 269 268
172 214 212 240 230 243 239 258 229 223 254 239 249 266 313 338 297 265 265 302 347 348 320 305 305 305 303 296 295 299 304 304 313 324 321 295 289 272 196 181 159 149 62 333 321 313 310 309 305 292 277 269 268 271
232 205 189 216 223 197 231 271 0 319 292 264 229 356 314 294 268 270 266 323 321 329 326 298 303 305 294 291 296 287 283 288 284 286 325 330 275 201 184 179 165 360 345 330 327 325 322 327 347 345 270 248 263 287
250 245 226 232 247 293 275 269 258 245 264 283 336 51 51 309 305 282 306 335 328 321 311 315 297 293 297 296 281 274 270 260 240 296 31 70 115 145 176 203 83 60 8 3 1 352 349 351 21 23 34 60 82 1
237 261 209 235 215 227 248 261 264 250 199 269 283 265 241 207 224 277 319 316 312 306 301 294 287 284 299 306 262 242 232 208 193 160 132 116 115 121 130 122 96 46 31 25 15 19 30 28 19 357 37 53 48 33
231 231 232 262 253 230 220 214 241 255 234 187 299 285 275 297 301 312 318 310 298 300 304 291 263 303 293 298 258 207 184 186 169 162 159 159 150 149 140 133 91 57 64 50 49 48 48 55 71 79 79 77 81 81
244 212 218 240 218 234 235 220 249 277 295 304 301 288 298 313 325 327 349 333 311 60 359 323 305 313 304 261 184 190 193 180 182 195 199 172 161 145 151 126 90 93 90 69 64 63 66 69 80 89 90 84 79 82
242 195 221 236 251 253 261 276 283 282 283 283 289 288 300 322 335 342 307 260 295 315 317 9 127 89 116 89 145 167 160 163 141 121 126 124 112 105 98 81 75 88 87 88 82 73 70 86 89 90 85 82 78 78
210 208 209 231 260 292 307 279 271 257 264 264 268 285 300 297 349 288 324 1 61 83 60 62 72 105 98 104 100 99 105 109 115 117 114 103 97 94 92 88 88 86 86 82 82 86 92 95 91 87 88 88 85 81
214 225 233 269 284 338 315 330 282 283 261 260 272 289 264 272 258 323 12 47 88 77 70 87 92 87 97 103 111 114 107 111 111 112 112 108 103 99 94 88 84 83 86 87 89 90 91 93 94 92 87 85 82 82